This is the latest recevied weather packets stored in our database for station/object DG6YGE-6. If no packets are shown the sender has not sent any weather packets the latest 10 day(s).
| Time | Temp. | Humidity | Pressure | Rain* | Wind** | Luminosity | Snow |
|---|---|---|---|---|---|---|---|
| 1788043751 | 17.22° C | 94% | 1007.2 hPa | 0 mm | - | 0 W/m² | - |
| 1788043151 | 17.22° C | 93% | 1007.3 hPa | 0 mm | - | 0 W/m² | - |
| 1788042551 | 17.22° C | 93% | 1007.3 hPa | 0 mm | - | 0 W/m² | - |
| 1788041951 | 17.22° C | 93% | 1007.5 hPa | 0 mm | - | 0 W/m² | - |
| 1788041351 | 17.22° C | 93% | 1007.7 hPa | 0.25 mm | - | 0 W/m² | - |
| 1788040751 | 17.22° C | 93% | 1007.7 hPa | 0.25 mm | - | 0 W/m² | - |
| 1788040151 | 17.22° C | 92% | 1007.8 hPa | 0.25 mm | - | 0 W/m² | - |
| 1788039551 | 17.22° C | 92% | 1007.7 hPa | 0.51 mm | - | 0 W/m² | - |
| 1788038951 | 17.22° C | 92% | 1008 hPa | 1.02 mm | - | 0 W/m² | - |
| 1788038351 | 17.22° C | 91% | 1007.9 hPa | 1.02 mm | - | 0 W/m² | - |
| 1788037751 | 17.78° C | 91% | 1007.9 hPa | 0.76 mm | - | 0 W/m² | - |
| 1788037151 | 17.78° C | 90% | 1007.9 hPa | 0.76 mm | - | 0 W/m² | - |
| 1788036551 | 17.78° C | 88% | 1008 hPa | 0.76 mm | - | 0 W/m² | - |
| 1788035951 | 18.89° C | 85% | 1008.3 hPa | 0.51 mm | - | 0 W/m² | - |
| 1788035351 | 19.44° C | 81% | 1008.1 hPa | 0 mm | - | 0 W/m² | - |
| 1788034751 | 19.44° C | 79% | 1008.1 hPa | 0 mm | - | 0 W/m² | - |
| 1788034151 | 19.44° C | 78% | 1008.2 hPa | 0 mm | - | 0 W/m² | - |
| 1788033551 | 19.44° C | 77% | 1008.2 hPa | 0 mm | - | 0 W/m² | - |
| 1788032951 | 19.44° C | 77% | 1008.2 hPa | 0 mm | - | 0 W/m² | - |
| 1788032351 | 19.44° C | 77% | 1008.2 hPa | 0 mm | - | 0 W/m² | - |
| 1788031751 | 19.44° C | 77% | 1008.3 hPa | 0 mm | - | 0 W/m² | - |
| 1788031158 | 20° C | 77% | 1008.3 hPa | 0 mm | - | 0 W/m² | - |
| 1788030551 | 20° C | 76% | 1008.4 hPa | 0 mm | - | 0 W/m² | - |
| 1788029951 | 20° C | 75% | 1008.4 hPa | 0 mm | - | 0 W/m² | - |
| 1788029351 | 20° C | 75% | 1008.4 hPa | 0 mm | - | 0 W/m² | - |
* Rain latest hour (hover to see other rain measurements)
** Current wind speed in m/s (hover to see current wind gust speed)